Weather Roundup
Issued by NWS Chicago, IL

Home | Current Version | Previous Version | Text Only | Print | Product List | Glossary Off
Versions: 1 2 3 4 5 6 7 8 9 10 11 12 13 14 15 16 17 18 19 20 21 22 23 24 25 26 27 28 29 30 31 32 33 34 35 36 37 38 39 40 41 42 43 44 45 46 47 48 49 50

000
NZUS59 KLOT 022012
HRRLOT

CHICAGO AREA WEATHER ROUNDUP
NATIONAL WEATHER SERVICE CHICAGO/ROMEOVILLE IL
200 PM CST FRI DEC 02 2016

NOTE: "FAIR" INDICATES FEW OR NO CLOUDS BELOW 12,000 FEET WITH NO
SIGNIFICANT WEATHER AND/OR OBSTRUCTIONS TO VISIBILITY.

* THESE STATIONS ARE NOT UNDER NWS QUALITY CONTROL. THEY ALSO MAY NOT
  REPORT WEATHER SUCH AS PRECIPITATION OR FOG.

ILZ005-006-012>014-019>023-022100-
NORTHEAST ILLINOIS

CITY           SKY/WX    TMP DP  RH WIND       PRES   REMARKS
OHARE          CLOUDY    38  27  64 NW12      30.19R
MIDWAY         CLOUDY    41  29  62 W10       30.19R
AURORA         CLOUDY    39  32  76 NW9       30.20S
LANSING*       CLOUDY    37  35  92 W7        30.21R
JOLIET*        CLOUDY    39  33  78 NW3       30.21R
WAUKEGAN       CLOUDY    36  24  62 NW7       30.19R
DUPAGE AIRPORT CLOUDY    37  30  75 NW9       30.19R
WHEELING       CLOUDY    38  26  62 NW6       30.21R
KANKAKEE*      CLOUDY    40  33  77 W10       30.21S
MORRIS*        DRIZZLE   37  34  88 NW6       30.21R
LEWIS AIRPORT* CLOUDY    37  35  92 NW7       30.21R
NORTHERLY ISL    N/A     40  28  63 NW9         N/A
$$

WIZ051-052-058>065-066-070>072-022100-
SOUTHEAST WISCONSIN

CITY           SKY/WX    TMP DP  RH WIND       PRES   REMARKS
MILWAUKEE      CLOUDY    36  23  59 W9        30.19R
KENOSHA*       CLOUDY    35  23  61 NW13      30.20R WCI  26
RACINE*        CLOUDY    36  23  59 NW7       30.21R
BURLINGTON     CLOUDY    34  25  69 NW8       30.20R WCI  27
WAUKESHA       CLOUDY    32  23  69 NW13      30.19R WCI  22
WEST BEND      CLOUDY    32  27  80 NW10      30.18R WCI  24
$$

INZ001>003-010>013-019-020-022100-
NORTHWEST INDIANA

CITY           SKY/WX    TMP DP  RH WIND       PRES   REMARKS
GARY*          CLOUDY    41  32  70 W9        30.20R
MICHIGAN CITY* NOT AVBL
RENSSELAER*    NOT AVBL
VALPARAISO     CLOUDY    40  30  67 W8        30.20R
$$

LMZ740>746-022100-
SOUTHERN LAKE MICHIGAN

STATION/POSITION TIME  SKY/WX   TEMP WIND        PRES    VSBY
                                AIR  DIR/SP/G
                 (UTC)          (F)  (DEG/KT/KT) (MB)    (MI)
HARRISON CRIB    1940            39  340/ 12/ 14   N/A
BURNHAM HARBOR   2000            40  280/  7/ 13   N/A
CALUMET HARBOR   1948            40  250/  5/  7 1021.9R
BURNS HARBOR     1840            41  300/ 16/ 20 1021.7
MICHIGAN CITY    1940            39  300/ 14/ 15   N/A
$$

ABBREVIATIONS USED IN REMARKS
   TC - TEMPERATURE IN CELSIUS
  WCI - WIND CHILL INDEX
   HX - HEAT INDEX
  VSB - VISIBILITY
$$



USA.gov is the U.S. government's official web portal to all federal, state and local government web resources and services.